Time,TemperatureF,DewpointF,PressureIn,WindDirection,WindDirectionDegrees,WindSpeedMPH,WindSpeedGustMPH,Humidity,HourlyPrecipIn,Conditions,Clouds,dailyrainin,SoftwareType,DateUTC
2013-03-30 00:05:00,32.1,30.8,29.94,SW,216,3.0,5.0,95,0.00,,,0.00,Wunderground v.1.15,2013-03-30 08:05:00,
2013-03-30 00:11:00,32.2,30.9,29.94,WSW,242,2.0,5.0,95,0.00,,,0.00,Wunderground v.1.15,2013-03-30 08:11:00,
2013-03-30 00:17:00,32.2,30.9,29.94,SW,221,2.0,5.0,95,0.00,,,0.00,Wunderground v.1.15,2013-03-30 08:17:00,
2013-03-30 00:22:00,32.3,31.0,29.94,WSW,241,2.0,5.0,95,0.00,,,0.00,Wunderground v.1.15,2013-03-30 08:22:00,
2013-03-30 00:27:00,32.3,30.8,29.94,SSW,208,2.0,5.0,94,0.00,,,0.00,Wunderground v.1.15,2013-03-30 08:27:00,
2013-03-30 00:33:00,32.2,30.7,29.95,SW,217,1.0,5.0,94,0.00,,,0.00,Wunderground v.1.15,2013-03-30 08:33:00,
2013-03-30 00:38:00,32.1,30.6,29.95,SSW,199,1.0,5.0,94,0.00,,,0.00,Wunderground v.1.15,2013-03-30 08:38:00,
2013-03-30 00:43:00,31.8,30.5,29.95,SSW,201,1.0,5.0,95,0.00,,,0.00,Wunderground v.1.15,2013-03-30 08:43:00,
2013-03-30 00:48:00,31.6,30.3,29.95,SSW,211,2.0,5.0,95,0.00,,,0.00,Wunderground v.1.15,2013-03-30 08:48:00,
2013-03-30 00:54:00,31.5,30.2,29.95,SW,215,1.0,5.0,95,0.00,,,0.00,Wunderground v.1.15,2013-03-30 08:54:00,
2013-03-30 00:59:00,31.4,30.1,29.96,SW,214,1.0,1.0,95,0.00,,,0.00,Wunderground v.1.15,2013-03-30 08:59:00,
2013-03-30 01:05:00,31.4,30.1,29.96,SSW,195,0.0,4.0,95,0.00,,,0.00,Wunderground v.1.15,2013-03-30 09:05:00,
2013-03-30 01:10:00,31.3,30.3,29.96,SSW,198,1.0,4.0,96,0.00,,,0.00,Wunderground v.1.15,2013-03-30 09:10:00,
2013-03-30 01:16:00,31.3,30.3,29.96,SW,229,2.0,4.0,96,0.00,,,0.00,Wunderground v.1.15,2013-03-30 09:16:00,
2013-03-30 01:22:00,31.2,30.2,29.97,WSW,253,1.0,4.0,96,0.00,,,0.00,Wunderground v.1.15,2013-03-30 09:22:00,
2013-03-30 01:27:00,31.3,30.3,29.96,WSW,254,0.0,4.0,96,0.00,,,0.00,Wunderground v.1.15,2013-03-30 09:27:00,
2013-03-30 01:32:00,31.4,30.4,29.96,SW,220,0.0,4.0,96,0.00,,,0.00,Wunderground v.1.15,2013-03-30 09:32:00,
2013-03-30 01:36:00,31.4,30.4,29.96,SW,225,0.0,4.0,96,0.00,,,0.00,Wunderground v.1.15,2013-03-30 09:36:00,
2013-03-30 01:42:00,31.5,30.5,29.97,SSW,207,1.0,4.0,96,0.00,,,0.00,Wunderground v.1.15,2013-03-30 09:42:00,
2013-03-30 01:48:00,31.6,30.6,29.97,SW,218,1.0,4.0,96,0.00,,,0.00,Wunderground v.1.15,2013-03-30 09:48:00,
2013-03-30 01:54:00,31.6,30.6,29.97,SW,214,1.0,4.0,96,0.00,,,0.00,Wunderground v.1.15,2013-03-30 09:54:00,
2013-03-30 02:00:00,31.6,30.6,29.97,SW,214,0.0,3.0,96,0.00,,,0.00,Wunderground v.1.15,2013-03-30 10:00:00,
2013-03-30 02:06:00,31.6,30.6,29.97,SW,214,0.0,3.0,96,0.00,,,0.00,Wunderground v.1.15,2013-03-30 10:06:00,
2013-03-30 02:12:00,31.6,30.6,29.97,SSW,205,1.0,3.0,96,0.00,,,0.00,Wunderground v.1.15,2013-03-30 10:12:00,
2013-03-30 02:18:00,31.6,30.3,29.98,SSW,205,1.0,3.0,95,0.00,,,0.00,Wunderground v.1.15,2013-03-30 10:18:00,
2013-03-30 02:23:00,31.5,30.2,29.98,SSW,210,0.0,3.0,95,0.00,,,0.00,Wunderground v.1.15,2013-03-30 10:23:00,
2013-03-30 02:29:00,31.5,30.2,29.98,SSW,209,0.0,3.0,95,0.00,,,0.00,Wunderground v.1.15,2013-03-30 10:29:00,
2013-03-30 02:34:00,31.4,30.1,29.98,SSW,210,0.0,3.0,95,0.00,,,0.00,Wunderground v.1.15,2013-03-30 10:34:00,
2013-03-30 02:39:00,31.4,30.1,29.98,SSW,210,0.0,3.0,95,0.00,,,0.00,Wunderground v.1.15,2013-03-30 10:39:00,
2013-03-30 02:44:00,31.3,30.0,29.98,SSW,210,0.0,3.0,95,0.00,,,0.00,Wunderground v.1.15,2013-03-30 10:44:00,
2013-03-30 02:50:00,31.3,30.0,29.98,SSW,209,0.0,3.0,95,0.00,,,0.00,Wunderground v.1.15,2013-03-30 10:50:00,
2013-03-30 02:55:00,31.2,29.9,29.98,SSW,209,0.0,3.0,95,0.00,,,0.00,Wunderground v.1.15,2013-03-30 10:55:00,
2013-03-30 03:00:00,31.3,30.0,29.98,SSW,209,0.0,0.0,95,0.00,,,0.00,Wunderground v.1.15,2013-03-30 11:00:00,
2013-03-30 03:05:00,31.2,29.9,29.98,SSW,209,0.0,0.0,95,0.00,,,0.00,Wunderground v.1.15,2013-03-30 11:05:00,
2013-03-30 03:10:00,31.1,29.8,29.99,SSW,210,0.0,0.0,95,0.00,,,0.00,Wunderground v.1.15,2013-03-30 11:10:00,
2013-03-30 03:16:00,30.9,29.6,29.99,SSW,210,0.0,0.0,95,0.00,,,0.00,Wunderground v.1.15,2013-03-30 11:16:00,
2013-03-30 03:21:00,30.9,29.6,29.99,SSW,210,0.0,0.0,95,0.00,,,0.00,Wunderground v.1.15,2013-03-30 11:21:00,
2013-03-30 03:27:00,30.8,29.8,29.99,SSW,210,0.0,0.0,96,0.00,,,0.00,Wunderground v.1.15,2013-03-30 11:27:00,
2013-03-30 03:33:00,30.7,29.7,29.99,SSW,210,0.0,0.0,96,0.00,,,0.00,Wunderground v.1.15,2013-03-30 11:33:00,
2013-03-30 03:39:00,30.7,29.7,30.00,SSW,209,0.0,0.0,96,0.00,,,0.00,Wunderground v.1.15,2013-03-30 11:39:00,
2013-03-30 03:44:00,30.6,29.6,29.99,SSW,209,0.0,0.0,96,0.00,,,0.00,Wunderground v.1.15,2013-03-30 11:44:00,
2013-03-30 03:49:00,30.6,29.6,30.00,SSW,210,0.0,0.0,96,0.00,,,0.00,Wunderground v.1.15,2013-03-30 11:49:00,
2013-03-30 03:55:00,30.6,29.6,30.00,SSW,209,0.0,0.0,96,0.00,,,0.00,Wunderground v.1.15,2013-03-30 11:55:00,
2013-03-30 04:01:00,30.6,29.6,30.00,SSW,210,0.0,0.0,96,0.00,,,0.00,Wunderground v.1.15,2013-03-30 12:01:00,
2013-03-30 04:06:00,30.6,29.6,30.00,SSW,210,0.0,0.0,96,0.00,,,0.00,Wunderground v.1.15,2013-03-30 12:06:00,
2013-03-30 04:12:00,30.7,29.7,30.00,SSW,210,0.0,0.0,96,0.00,,,0.00,Wunderground v.1.15,2013-03-30 12:12:00,
2013-03-30 04:17:00,30.7,29.7,30.00,SSW,209,0.0,0.0,96,0.00,,,0.00,Wunderground v.1.15,2013-03-30 12:17:00,
2013-03-30 04:22:00,30.7,29.7,30.01,SSW,209,0.0,0.0,96,0.00,,,0.00,Wunderground v.1.15,2013-03-30 12:22:00,
2013-03-30 04:28:00,30.6,29.6,30.01,SSW,209,0.0,0.0,96,0.00,,,0.00,Wunderground v.1.15,2013-03-30 12:28:00,
2013-03-30 04:34:00,30.6,29.6,30.01,WSW,250,0.0,2.0,96,0.00,,,0.00,Wunderground v.1.15,2013-03-30 12:34:00,
2013-03-30 04:40:00,30.5,29.5,30.01,WSW,250,0.0,0.0,96,0.00,,,0.00,Wunderground v.1.15,2013-03-30 12:40:00,
2013-03-30 04:46:00,30.6,29.6,30.01,WSW,250,0.0,0.0,96,0.00,,,0.00,Wunderground v.1.15,2013-03-30 12:46:00,
2013-03-30 04:51:00,30.6,29.6,30.01,WSW,251,0.0,0.0,96,0.00,,,0.00,Wunderground v.1.15,2013-03-30 12:51:00,
2013-03-30 04:57:00,30.7,29.7,30.01,WSW,251,0.0,0.0,96,0.00,,,0.00,Wunderground v.1.15,2013-03-30 12:57:00,
2013-03-30 05:03:00,30.8,29.8,30.02,WSW,250,0.0,1.0,96,0.00,,,0.00,Wunderground v.1.15,2013-03-30 13:03:00,
2013-03-30 05:08:00,30.8,29.8,30.02,WSW,250,0.0,1.0,96,0.00,,,0.00,Wunderground v.1.15,2013-03-30 13:08:00,
2013-03-30 05:14:00,30.8,29.8,30.02,WSW,250,0.0,1.0,96,0.00,,,0.00,Wunderground v.1.15,2013-03-30 13:14:00,
2013-03-30 05:19:00,30.8,29.8,30.02,WSW,250,0.0,1.0,96,0.00,,,0.00,Wunderground v.1.15,2013-03-30 13:19:00,
2013-03-30 05:25:00,30.8,29.8,30.02,WSW,250,0.0,1.0,96,0.00,,,0.00,Wunderground v.1.15,2013-03-30 13:25:00,
2013-03-30 05:30:00,30.9,30.1,30.02,WSW,251,0.0,1.0,97,0.00,,,0.00,Wunderground v.1.15,2013-03-30 13:30:00,
2013-03-30 05:35:00,31.0,30.2,30.02,WSW,250,0.0,2.0,97,0.00,,,0.00,Wunderground v.1.15,2013-03-30 13:35:00,
2013-03-30 05:41:00,31.3,30.5,30.02,West,263,1.0,1.0,97,0.00,,,0.00,Wunderground v.1.15,2013-03-30 13:41:00,
2013-03-30 05:47:00,31.3,30.5,30.02,West,263,0.0,1.0,97,0.00,,,0.00,Wunderground v.1.15,2013-03-30 13:47:00,
2013-03-30 05:52:00,31.2,30.2,30.02,West,263,0.0,1.0,96,0.00,,,0.00,Wunderground v.1.15,2013-03-30 13:52:00,
2013-03-30 05:58:00,31.1,30.1,30.03,West,263,0.0,1.0,96,0.00,,,0.00,Wunderground v.1.15,2013-03-30 13:58:00,
2013-03-30 06:03:00,31.1,30.1,30.03,West,263,0.0,0.0,96,0.00,,,0.00,Wunderground v.1.15,2013-03-30 14:03:00,
2013-03-30 06:08:00,31.1,30.1,30.03,West,277,0.0,3.0,96,0.00,,,0.00,Wunderground v.1.15,2013-03-30 14:08:00,
2013-03-30 06:14:00,31.5,30.7,30.03,West,274,1.0,3.0,97,0.00,,,0.00,Wunderground v.1.15,2013-03-30 14:14:00,
2013-03-30 06:19:00,31.8,31.0,30.03,West,280,2.0,2.0,97,0.00,,,0.00,Wunderground v.1.15,2013-03-30 14:19:00,
2013-03-30 06:25:00,31.8,30.8,30.03,WNW,283,1.0,2.0,96,0.00,,,0.00,Wunderground v.1.15,2013-03-30 14:25:00,
2013-03-30 06:31:00,31.8,30.8,30.04,WNW,291,1.0,3.0,96,0.00,,,0.00,Wunderground v.1.15,2013-03-30 14:31:00,
2013-03-30 06:37:00,31.7,30.7,30.04,WNW,291,1.0,3.0,96,0.00,,,0.00,Wunderground v.1.15,2013-03-30 14:37:00,
2013-03-30 06:43:00,31.4,30.1,30.04,WNW,292,0.0,1.0,95,0.00,,,0.00,Wunderground v.1.15,2013-03-30 14:43:00,
2013-03-30 06:48:00,31.2,29.9,30.04,WNW,291,0.0,1.0,95,0.00,,,0.00,Wunderground v.1.15,2013-03-30 14:48:00,
2013-03-30 06:53:00,30.9,29.6,30.04,NNE,16,0.0,0.0,95,0.00,,,0.00,Wunderground v.1.15,2013-03-30 14:53:00,
2013-03-30 06:58:00,30.8,29.5,30.05,NNE,15,0.0,0.0,95,0.00,,,0.00,Wunderground v.1.15,2013-03-30 14:58:00,
2013-03-30 07:04:00,30.8,29.8,30.04,NNE,16,0.0,1.0,96,0.00,,,0.00,Wunderground v.1.15,2013-03-30 15:04:00,
2013-03-30 07:09:00,30.8,29.8,30.04,NNE,16,0.0,1.0,96,0.00,,,0.00,Wunderground v.1.15,2013-03-30 15:09:00,
2013-03-30 07:15:00,31.0,30.0,30.05,NNE,16,0.0,1.0,96,0.00,,,0.00,Wunderground v.1.15,2013-03-30 15:15:00,
2013-03-30 07:20:00,31.1,30.1,30.05,NNE,16,0.0,1.0,96,0.00,,,0.00,Wunderground v.1.15,2013-03-30 15:20:00,
2013-03-30 07:25:00,31.1,30.1,30.05,NNE,15,0.0,1.0,96,0.00,,,0.00,Wunderground v.1.15,2013-03-30 15:25:00,
2013-03-30 07:31:00,31.1,30.1,30.05,NNE,15,0.0,1.0,96,0.00,,,0.00,Wunderground v.1.15,2013-03-30 15:31:00,
2013-03-30 07:36:00,31.2,30.2,30.05,NNE,16,0.0,1.0,96,0.00,,,0.00,Wunderground v.1.15,2013-03-30 15:36:00,
2013-03-30 07:41:00,31.2,30.2,30.05,NW,314,0.0,1.0,96,0.00,,,0.00,Wunderground v.1.15,2013-03-30 15:41:00,
2013-03-30 07:46:00,31.5,30.5,30.05,NW,315,1.0,4.0,96,0.00,,,0.00,Wunderground v.1.15,2013-03-30 15:46:00,
2013-03-30 07:52:00,31.8,30.8,30.05,NW,313,3.0,3.0,96,0.00,,,0.00,Wunderground v.1.15,2013-03-30 15:52:00,
2013-03-30 07:57:00,31.9,30.9,30.05,NW,317,2.0,3.0,96,0.00,,,0.00,Wunderground v.1.15,2013-03-30 15:57:00,
2013-03-30 08:02:00,31.9,30.6,30.05,NW,317,1.0,5.0,95,0.00,,,0.00,Wunderground v.1.15,2013-03-30 16:02:00,
2013-03-30 08:08:00,31.9,30.6,30.05,NW,317,0.0,5.0,95,0.00,,,0.00,Wunderground v.1.15,2013-03-30 16:08:00,
2013-03-30 08:13:00,31.9,30.6,30.05,NW,317,0.0,5.0,95,0.00,,,0.00,Wunderground v.1.15,2013-03-30 16:13:00,
2013-03-30 08:18:00,31.9,30.6,30.05,NW,317,0.0,5.0,95,0.00,,,0.00,Wunderground v.1.15,2013-03-30 16:18:00,
2013-03-30 08:24:00,32.0,30.7,30.05,NW,318,0.0,5.0,95,0.00,,,0.00,Wunderground v.1.15,2013-03-30 16:24:00,
2013-03-30 08:30:00,32.1,30.8,30.05,NW,318,0.0,5.0,95,0.00,,,0.00,Wunderground v.1.15,2013-03-30 16:30:00,
2013-03-30 08:35:00,32.3,31.0,30.06,NW,317,0.0,5.0,95,0.00,,,0.00,Wunderground v.1.15,2013-03-30 16:35:00,
2013-03-30 08:40:00,32.2,30.9,30.06,NW,317,0.0,5.0,95,0.00,,,0.00,Wunderground v.1.15,2013-03-30 16:40:00,
2013-03-30 08:46:00,32.3,31.0,30.06,NW,317,0.0,5.0,95,0.00,,,0.00,Wunderground v.1.15,2013-03-30 16:46:00,
2013-03-30 08:51:00,32.5,31.2,30.06,NW,320,0.0,5.0,95,0.00,,,0.00,Wunderground v.1.15,2013-03-30 16:51:00,
2013-03-30 08:57:00,32.8,31.3,30.06,NNW,329,1.0,5.0,94,0.00,,,0.00,Wunderground v.1.15,2013-03-30 16:57:00,
2013-03-30 09:02:00,32.9,31.4,30.06,NNW,330,0.0,3.0,94,0.00,,,0.00,Wunderground v.1.15,2013-03-30 17:02:00,
2013-03-30 09:08:00,33.0,31.5,30.06,NNW,329,0.0,3.0,94,0.00,,,0.00,Wunderground v.1.15,2013-03-30 17:08:00,
2013-03-30 09:13:00,33.0,31.5,30.07,NNW,329,0.0,3.0,94,0.00,,,0.00,Wunderground v.1.15,2013-03-30 17:13:00,
2013-03-30 09:18:00,32.8,31.0,30.07,NNW,330,0.0,3.0,93,0.00,,,0.00,Wunderground v.1.15,2013-03-30 17:18:00,
2013-03-30 09:23:00,32.6,31.1,30.07,NNW,345,0.0,3.0,94,0.00,,,0.00,Wunderground v.1.15,2013-03-30 17:23:00,
2013-03-30 09:29:00,32.5,31.0,30.07,NNW,345,0.0,3.0,94,0.00,,,0.00,Wunderground v.1.15,2013-03-30 17:29:00,
2013-03-30 09:35:00,32.4,30.9,30.08,NNW,345,0.0,3.0,94,0.00,,,0.00,Wunderground v.1.15,2013-03-30 17:35:00,
2013-03-30 09:41:00,32.5,31.0,30.08,NNE,13,0.0,3.0,94,0.00,,,0.00,Wunderground v.1.15,2013-03-30 17:41:00,
2013-03-30 09:46:00,32.6,31.1,30.08,NNW,348,0.0,3.0,94,0.00,,,0.00,Wunderground v.1.15,2013-03-30 17:46:00,
2013-03-30 09:52:00,32.8,31.3,30.08,NNW,348,0.0,3.0,94,0.00,,,0.00,Wunderground v.1.15,2013-03-30 17:52:00,
2013-03-30 09:57:00,33.0,31.5,30.08,NNW,348,0.0,3.0,94,0.00,,,0.01,Wunderground v.1.15,2013-03-30 17:57:00,
2013-03-30 10:03:00,33.3,31.8,30.08,NNW,348,0.0,0.0,94,0.00,,,0.01,Wunderground v.1.15,2013-03-30 18:03:00,
2013-03-30 10:08:00,33.6,32.1,30.08,NNW,347,0.0,0.0,94,0.00,,,0.01,Wunderground v.1.15,2013-03-30 18:08:00,
2013-03-30 10:14:00,34.1,32.3,30.09,NNW,347,0.0,0.0,93,0.00,,,0.01,Wunderground v.1.15,2013-03-30 18:14:00,
2013-03-30 10:19:00,34.6,33.1,30.08,NNW,346,0.0,0.0,94,0.00,,,0.02,Wunderground v.1.15,2013-03-30 18:19:00,
2013-03-30 10:24:00,35.2,33.4,30.09,NNW,347,0.0,0.0,93,0.00,,,0.02,Wunderground v.1.15,2013-03-30 18:24:00,
2013-03-30 10:30:00,35.5,33.4,30.09,NNW,346,0.0,0.0,92,0.00,,,0.02,Wunderground v.1.15,2013-03-30 18:30:00,
2013-03-30 10:35:00,35.7,33.6,30.09,NNW,346,0.0,0.0,92,0.00,,,0.02,Wunderground v.1.15,2013-03-30 18:35:00,
2013-03-30 10:40:00,35.8,33.4,30.09,ENE,64,0.0,1.0,91,0.00,,,0.03,Wunderground v.1.15,2013-03-30 18:40:00,
2013-03-30 10:46:00,35.9,33.5,30.09,ENE,76,0.0,1.0,91,0.00,,,0.03,Wunderground v.1.15,2013-03-30 18:46:00,
2013-03-30 10:51:00,36.2,34.1,30.10,East,79,0.0,1.0,92,0.00,,,0.03,Wunderground v.1.15,2013-03-30 18:51:00,
2013-03-30 10:57:00,36.7,34.3,30.10,NE,45,0.0,1.0,91,0.00,,,0.03,Wunderground v.1.15,2013-03-30 18:57:00,
2013-03-30 11:02:00,37.0,34.6,30.10,NNE,30,0.0,2.0,91,0.00,,,0.03,Wunderground v.1.15,2013-03-30 19:02:00,
2013-03-30 11:08:00,37.5,34.6,30.10,ENE,57,0.0,3.0,89,0.00,,,0.04,Wunderground v.1.15,2013-03-30 19:08:00,
2013-03-30 11:13:00,37.8,34.6,30.10,ENE,62,1.0,2.0,88,0.00,,,0.04,Wunderground v.1.15,2013-03-30 19:13:00,
2013-03-30 11:19:00,37.4,33.9,30.10,ENE,64,1.0,2.0,87,0.00,,,0.04,Wunderground v.1.15,2013-03-30 19:19:00,
2013-03-30 11:25:00,36.7,32.9,30.10,NE,52,1.0,2.0,86,0.00,,,0.04,Wunderground v.1.15,2013-03-30 19:25:00,
2013-03-30 11:31:00,36.6,33.4,30.10,East,87,1.0,2.0,88,0.00,,,0.04,Wunderground v.1.15,2013-03-30 19:31:00,
2013-03-30 11:37:00,36.4,33.2,30.10,East,79,1.0,2.0,88,0.00,,,0.04,Wunderground v.1.15,2013-03-30 19:37:00,
2013-03-30 11:42:00,36.5,33.6,30.10,NE,43,0.0,2.0,89,0.00,,,0.04,Wunderground v.1.15,2013-03-30 19:42:00,
2013-03-30 11:48:00,36.7,33.5,30.10,ENE,73,0.0,2.0,88,0.00,,,0.04,Wunderground v.1.15,2013-03-30 19:48:00,
2013-03-30 11:53:00,36.4,33.2,30.11,East,79,1.0,2.0,88,0.00,,,0.04,Wunderground v.1.15,2013-03-30 19:53:00,
2013-03-30 11:59:00,36.5,33.8,30.11,East,79,1.0,1.0,90,0.00,,,0.04,Wunderground v.1.15,2013-03-30 19:59:00,
2013-03-30 12:05:00,37.1,34.7,30.11,East,79,0.0,3.0,91,0.00,,,0.04,Wunderground v.1.15,2013-03-30 20:05:00,
2013-03-30 12:10:00,37.7,34.8,30.11,NNE,33,0.0,3.0,89,0.00,,,0.04,Wunderground v.1.15,2013-03-30 20:10:00,
2013-03-30 12:17:00,38.2,34.7,30.11,East,89,0.0,3.0,87,0.00,,,0.04,Wunderground v.1.15,2013-03-30 20:17:00,
2013-03-30 12:22:00,38.1,34.6,30.11,ESE,110,1.0,3.0,87,0.00,,,0.04,Wunderground v.1.15,2013-03-30 20:22:00,
2013-03-30 12:28:00,37.7,34.2,30.12,East,93,1.0,3.0,87,0.00,,,0.04,Wunderground v.1.15,2013-03-30 20:28:00,
2013-03-30 12:34:00,37.5,34.0,30.12,East,89,1.0,3.0,87,0.00,,,0.04,Wunderground v.1.15,2013-03-30 20:34:00,
2013-03-30 12:39:00,37.7,34.2,30.12,ESE,119,1.0,1.0,87,0.00,,,0.00,Wunderground v.1.15,2013-03-30 20:39:00,
2013-03-30 12:45:00,37.6,34.1,30.12,ENE,76,0.0,3.0,87,0.00,,,0.00,Wunderground v.1.15,2013-03-30 20:45:00,
2013-03-30 12:50:00,37.6,33.5,30.12,ENE,66,1.0,3.0,85,0.00,,,0.00,Wunderground v.1.15,2013-03-30 20:50:00,
2013-03-30 12:55:00,37.6,33.8,30.12,ENE,68,1.0,3.0,86,0.00,,,0.00,Wunderground v.1.15,2013-03-30 20:55:00,
2013-03-30 13:02:00,38.0,33.6,30.12,ENE,75,2.0,4.0,84,0.00,,,0.00,Wunderground v.1.15,2013-03-30 21:02:00,
2013-03-30 13:07:00,38.7,33.1,30.12,NNE,21,1.0,4.0,80,0.00,,,0.00,Wunderground v.1.15,2013-03-30 21:07:00,
2013-03-30 13:13:00,38.8,31.9,30.12,NE,45,1.0,4.0,76,0.00,,,0.00,Wunderground v.1.15,2013-03-30 21:13:00,
2013-03-30 13:18:00,38.9,32.9,30.12,NNE,33,1.0,4.0,79,0.00,,,0.00,Wunderground v.1.15,2013-03-30 21:18:00,
2013-03-30 13:23:00,38.9,32.0,30.12,ENE,77,1.0,4.0,76,0.00,,,0.00,Wunderground v.1.15,2013-03-30 21:23:00,
2013-03-30 13:28:00,38.7,32.1,30.13,ENE,62,2.0,4.0,77,0.00,,,0.00,Wunderground v.1.15,2013-03-30 21:28:00,
2013-03-30 13:34:00,38.9,32.3,30.12,East,84,2.0,5.0,77,0.00,,,0.00,Wunderground v.1.15,2013-03-30 21:34:00,
2013-03-30 13:40:00,38.6,32.0,30.12,East,84,2.0,3.0,77,0.00,,,0.00,Wunderground v.1.15,2013-03-30 21:40:00,
2013-03-30 13:46:00,38.2,31.9,30.13,ESE,110,2.0,4.0,78,0.00,,,0.00,Wunderground v.1.15,2013-03-30 21:46:00,
2013-03-30 13:51:00,38.2,32.3,30.13,NE,54,1.0,4.0,79,0.00,,,0.00,Wunderground v.1.15,2013-03-30 21:51:00,
2013-03-30 13:57:00,38.6,33.0,30.13,North,4,0.0,4.0,80,0.00,,,0.00,Wunderground v.1.15,2013-03-30 21:57:00,
2013-03-30 14:02:00,39.0,33.4,30.13,South,169,0.0,2.0,80,0.00,,,0.00,Wunderground v.1.15,2013-03-30 22:02:00,
2013-03-30 14:07:00,38.9,32.9,30.13,ENE,65,1.0,2.0,79,0.00,,,0.00,Wunderground v.1.15,2013-03-30 22:07:00,
2013-03-30 14:12:00,38.6,32.6,30.13,ESE,113,1.0,2.0,79,0.00,,,0.00,Wunderground v.1.15,2013-03-30 22:12:00,
2013-03-30 14:18:00,38.5,32.9,30.13,ENE,64,1.0,3.0,80,0.00,,,0.00,Wunderground v.1.15,2013-03-30 22:18:00,
2013-03-30 14:24:00,38.2,33.2,30.13,ENE,73,2.0,4.0,82,0.00,,,0.00,Wunderground v.1.15,2013-03-30 22:24:00,
2013-03-30 14:29:00,37.9,33.5,30.13,NE,55,2.0,2.0,84,0.00,,,0.00,Wunderground v.1.15,2013-03-30 22:29:00,
2013-03-30 14:34:00,37.4,33.6,30.13,East,85,3.0,4.0,86,0.00,,,0.00,Wunderground v.1.15,2013-03-30 22:34:00,
2013-03-30 14:40:00,37.0,33.5,30.13,East,90,2.0,3.0,87,0.00,,,0.00,Wunderground v.1.15,2013-03-30 22:40:00,
2013-03-30 14:45:00,36.8,33.6,30.14,East,89,2.0,3.0,88,0.00,,,0.00,Wunderground v.1.15,2013-03-30 22:45:00,
2013-03-30 14:51:00,36.2,33.0,30.14,SSE,160,2.0,4.0,88,0.00,,,0.00,Wunderground v.1.15,2013-03-30 22:51:00,
2013-03-30 14:56:00,36.0,33.1,30.14,SSE,162,3.0,4.0,89,0.00,,,0.00,Wunderground v.1.15,2013-03-30 22:56:00,
2013-03-30 15:02:00,36.4,33.7,30.14,SSE,157,2.0,6.0,90,0.00,,,0.00,Wunderground v.1.15,2013-03-30 23:02:00,
2013-03-30 15:07:00,37.2,34.3,30.14,SE,135,1.0,6.0,89,0.00,,,0.00,Wunderground v.1.15,2013-03-30 23:07:00,
2013-03-30 15:12:00,37.9,34.9,30.14,ENE,58,1.0,6.0,89,0.00,,,0.00,Wunderground v.1.15,2013-03-30 23:12:00,
2013-03-30 15:17:00,37.9,33.8,30.13,NNW,328,1.0,6.0,85,0.00,,,0.00,Wunderground v.1.15,2013-03-30 23:17:00,
2013-03-30 15:23:00,38.2,34.1,30.13,NNW,332,1.0,6.0,85,0.00,,,0.00,Wunderground v.1.15,2013-03-30 23:23:00,
2013-03-30 15:28:00,38.9,34.8,30.13,NE,52,0.0,6.0,85,0.00,,,0.00,Wunderground v.1.15,2013-03-30 23:28:00,
2013-03-30 15:34:00,38.9,34.2,30.13,NE,55,1.0,6.0,83,0.00,,,0.00,Wunderground v.1.15,2013-03-30 23:34:00,
2013-03-30 15:40:00,39.1,35.0,30.13,ENE,62,1.0,6.0,85,0.00,,,0.00,Wunderground v.1.15,2013-03-30 23:40:00,
2013-03-30 15:46:00,38.9,33.9,30.13,ESE,102,2.0,6.0,82,0.00,,,0.00,Wunderground v.1.15,2013-03-30 23:46:00,
2013-03-30 15:52:00,39.2,34.2,30.13,East,96,2.0,6.0,82,0.00,,,0.00,Wunderground v.1.15,2013-03-30 23:52:00,
2013-03-30 15:58:00,38.7,33.1,30.13,ENE,74,3.0,6.0,80,0.00,,,0.00,Wunderground v.1.15,2013-03-30 23:58:00,
2013-03-30 16:04:00,38.2,31.6,30.13,ENE,63,4.0,7.0,77,0.00,,,0.00,Wunderground v.1.15,2013-03-31 00:04:00,
2013-03-30 16:09:00,37.8,31.6,30.13,East,100,4.0,7.0,78,0.00,,,0.00,Wunderground v.1.15,2013-03-31 00:09:00,
2013-03-30 16:14:00,37.9,31.3,30.13,East,95,4.0,7.0,77,0.00,,,0.00,Wunderground v.1.15,2013-03-31 00:14:00,
2013-03-30 16:20:00,37.9,32.3,30.13,SE,139,3.0,7.0,80,0.00,,,0.00,Wunderground v.1.15,2013-03-31 00:20:00,
2013-03-30 16:25:00,37.6,32.6,30.13,SE,127,2.0,7.0,82,0.00,,,0.00,Wunderground v.1.15,2013-03-31 00:25:00,
2013-03-30 16:31:00,37.5,32.2,30.13,ESE,112,1.0,7.0,81,0.00,,,0.00,Wunderground v.1.15,2013-03-31 00:31:00,
2013-03-30 16:37:00,37.2,32.5,30.13,SE,140,1.0,7.0,83,0.00,,,0.00,Wunderground v.1.15,2013-03-31 00:37:00,
2013-03-30 16:42:00,37.3,32.6,30.13,SSE,162,1.0,7.0,83,0.00,,,0.00,Wunderground v.1.15,2013-03-31 00:42:00,
2013-03-30 16:47:00,37.2,32.2,30.14,SSE,156,1.0,7.0,82,0.00,,,0.00,Wunderground v.1.15,2013-03-31 00:47:00,
2013-03-30 16:53:00,37.1,32.1,30.14,ESE,122,1.0,7.0,82,0.00,,,0.00,Wunderground v.1.15,2013-03-31 00:53:00,
2013-03-30 16:59:00,36.8,31.8,30.14,ESE,122,2.0,2.0,82,0.00,,,0.00,Wunderground v.1.15,2013-03-31 00:59:00,
2013-03-30 17:05:00,36.8,32.1,30.14,ESE,112,1.0,4.0,83,0.00,,,0.00,Wunderground v.1.15,2013-03-31 01:05:00,
2013-03-30 17:11:00,36.7,31.7,30.14,SE,136,1.0,4.0,82,0.00,,,0.00,Wunderground v.1.15,2013-03-31 01:11:00,
2013-03-30 17:17:00,36.4,31.7,30.14,SE,130,1.0,4.0,83,0.00,,,0.00,Wunderground v.1.15,2013-03-31 01:17:00,
2013-03-30 17:22:00,36.3,31.6,30.14,South,179,1.0,4.0,83,0.00,,,0.00,Wunderground v.1.15,2013-03-31 01:22:00,
2013-03-30 17:28:00,36.0,31.6,30.14,South,182,0.0,4.0,84,0.00,,,0.00,Wunderground v.1.15,2013-03-31 01:28:00,
2013-03-30 17:33:00,36.0,31.9,30.14,South,182,0.0,4.0,85,0.00,,,0.00,Wunderground v.1.15,2013-03-31 01:33:00,
2013-03-30 17:38:00,36.0,31.9,30.14,SSW,195,0.0,4.0,85,0.00,,,0.00,Wunderground v.1.15,2013-03-31 01:38:00,
2013-03-30 17:44:00,36.1,32.0,30.14,SSW,196,0.0,4.0,85,0.00,,,0.00,Wunderground v.1.15,2013-03-31 01:44:00,
2013-03-30 17:50:00,36.2,32.1,30.14,SSW,197,0.0,4.0,85,0.00,,,0.00,Wunderground v.1.15,2013-03-31 01:50:00,
2013-03-30 17:56:00,36.5,32.4,30.14,SSW,197,0.0,4.0,85,0.00,,,0.00,Wunderground v.1.15,2013-03-31 01:56:00,
2013-03-30 18:01:00,36.8,32.4,30.14,SSW,197,0.0,1.0,84,0.00,,,0.00,Wunderground v.1.15,2013-03-31 02:01:00,
2013-03-30 18:07:00,37.2,32.5,30.14,SSW,197,0.0,1.0,83,0.00,,,0.00,Wunderground v.1.15,2013-03-31 02:07:00,
2013-03-30 18:13:00,37.3,32.0,30.14,SSW,196,0.0,1.0,81,0.00,,,0.00,Wunderground v.1.15,2013-03-31 02:13:00,
2013-03-30 18:19:00,37.6,32.6,30.14,SSW,196,0.0,1.0,82,0.00,,,0.00,Wunderground v.1.15,2013-03-31 02:19:00,
2013-03-30 18:24:00,37.7,32.7,30.15,SSW,196,0.0,1.0,82,0.00,,,0.00,Wunderground v.1.15,2013-03-31 02:24:00,
2013-03-30 18:29:00,37.7,32.7,30.15,SSW,197,0.0,1.0,82,0.00,,,0.00,Wunderground v.1.15,2013-03-31 02:29:00,
2013-03-30 18:35:00,37.7,32.4,30.15,SSW,196,0.0,1.0,81,0.00,,,0.00,Wunderground v.1.15,2013-03-31 02:35:00,
2013-03-30 18:40:00,37.5,31.9,30.15,SSW,196,0.0,1.0,80,0.00,,,0.00,Wunderground v.1.15,2013-03-31 02:40:00,
2013-03-30 18:46:00,37.4,32.4,30.15,SSW,196,0.0,1.0,82,0.00,,,0.00,Wunderground v.1.15,2013-03-31 02:46:00,
2013-03-30 18:51:00,37.3,32.3,30.15,SSW,195,0.0,1.0,82,0.00,,,0.00,Wunderground v.1.15,2013-03-31 02:51:00,
2013-03-30 18:56:00,37.3,32.6,30.15,SSW,195,0.0,1.0,83,0.00,,,0.00,Wunderground v.1.15,2013-03-31 02:56:00,
2013-03-30 19:02:00,37.1,32.4,30.15,SSW,195,0.0,1.0,83,0.00,,,0.00,Wunderground v.1.15,2013-03-31 03:02:00,
2013-03-30 19:08:00,37.1,32.7,30.15,SSW,195,0.0,1.0,84,0.00,,,0.00,Wunderground v.1.15,2013-03-31 03:08:00,
2013-03-30 19:13:00,37.1,32.7,30.15,SSW,195,0.0,1.0,84,0.00,,,0.00,Wunderground v.1.15,2013-03-31 03:13:00,
2013-03-30 19:19:00,37.0,32.6,30.15,ESE,118,0.0,2.0,84,0.00,,,0.00,Wunderground v.1.15,2013-03-31 03:19:00,
2013-03-30 19:25:00,36.7,32.6,30.16,ESE,120,1.0,4.0,85,0.00,,,0.00,Wunderground v.1.15,2013-03-31 03:25:00,
2013-03-30 19:31:00,36.3,32.5,30.16,South,173,1.0,2.0,86,0.00,,,0.00,Wunderground v.1.15,2013-03-31 03:31:00,
2013-03-30 19:36:00,36.0,32.2,30.16,SSE,163,1.0,2.0,86,0.00,,,0.00,Wunderground v.1.15,2013-03-31 03:36:00,
2013-03-30 19:42:00,35.7,32.2,30.16,South,171,1.0,2.0,87,0.00,,,0.00,Wunderground v.1.15,2013-03-31 03:42:00,
2013-03-30 19:48:00,35.6,32.1,30.16,SSE,168,0.0,2.0,87,0.00,,,0.00,Wunderground v.1.15,2013-03-31 03:48:00,
2013-03-30 19:53:00,35.5,32.0,30.16,South,188,0.0,2.0,87,0.00,,,0.00,Wunderground v.1.15,2013-03-31 03:53:00,
2013-03-30 19:59:00,35.1,31.9,30.16,West,260,1.0,2.0,88,0.00,,,0.00,Wunderground v.1.15,2013-03-31 03:59:00,
2013-03-30 20:00:00,35.1,32.2,30.16,West,260,1.0,2.0,89,0.00,,,0.00,Wunderground v.1.15,2013-03-31 04:00:00,
2013-03-30 20:01:00,35.1,32.2,30.16,West,260,1.0,2.0,89,0.00,,,0.00,Wunderground v.1.15,2013-03-31 04:01:00,
2013-03-30 20:03:00,35.0,32.1,30.16,WSW,257,1.0,3.0,89,0.00,,,0.00,Wunderground v.1.15,2013-03-31 04:03:00,
2013-03-30 20:04:00,35.0,32.1,30.16,WSW,257,1.0,3.0,89,0.00,,,0.00,Wunderground v.1.15,2013-03-31 04:04:00,
2013-03-30 20:09:00,35.0,32.1,30.15,WSW,257,1.0,2.0,89,0.00,,,0.00,Wunderground v.1.15,2013-03-31 04:09:00,
2013-03-30 20:14:00,35.0,32.1,30.16,WSW,258,1.0,2.0,89,0.00,,,0.00,Wunderground v.1.15,2013-03-31 04:14:00,
2013-03-30 20:19:00,35.0,32.1,30.16,WSW,258,1.0,1.0,89,0.00,,,0.00,Wunderground v.1.15,2013-03-31 04:19:00,
2013-03-30 20:24:00,35.0,32.1,30.16,WSW,258,0.0,2.0,89,0.00,,,0.00,Wunderground v.1.15,2013-03-31 04:24:00,
2013-03-30 20:29:00,35.0,31.8,30.16,WSW,258,0.0,2.0,88,0.00,,,0.00,Wunderground v.1.15,2013-03-31 04:29:00,
2013-03-30 20:34:00,34.9,31.7,30.16,WSW,258,0.0,2.0,88,0.00,,,0.00,Wunderground v.1.15,2013-03-31 04:34:00,
2013-03-30 20:40:00,34.8,31.6,30.17,WSW,258,0.0,2.0,88,0.00,,,0.00,Wunderground v.1.15,2013-03-31 04:40:00,
2013-03-30 20:45:00,34.8,31.6,30.17,NNW,332,0.0,2.0,88,0.00,,,0.00,Wunderground v.1.15,2013-03-31 04:45:00,
2013-03-30 20:50:00,34.8,31.6,30.17,NNW,332,0.0,2.0,88,0.00,,,0.00,Wunderground v.1.15,2013-03-31 04:50:00,
2013-03-30 20:55:00,34.8,31.6,30.17,NNW,332,0.0,2.0,88,0.00,,,0.00,Wunderground v.1.15,2013-03-31 04:55:00,
2013-03-30 21:00:00,34.8,31.6,30.17,NNW,332,0.0,0.0,88,0.00,,,0.00,Wunderground v.1.15,2013-03-31 05:00:00,
2013-03-30 21:06:00,34.9,31.7,30.17,NNW,332,0.0,0.0,88,0.00,,,0.00,Wunderground v.1.15,2013-03-31 05:06:00,
2013-03-30 21:13:00,35.0,31.5,30.17,NNW,332,0.0,1.0,87,0.00,,,0.00,Wunderground v.1.15,2013-03-31 05:13:00,
2013-03-30 21:18:00,35.2,31.4,30.18,NNW,332,0.0,1.0,86,0.00,,,0.00,Wunderground v.1.15,2013-03-31 05:18:00,
2013-03-30 21:23:00,35.1,31.6,30.18,NNW,332,0.0,0.0,87,0.00,,,0.00,Wunderground v.1.15,2013-03-31 05:23:00,
2013-03-30 21:29:00,35.0,31.2,30.18,NNW,333,0.0,0.0,86,0.00,,,0.00,Wunderground v.1.15,2013-03-31 05:29:00,
2013-03-30 21:34:00,34.8,31.0,30.18,NNW,333,0.0,0.0,86,0.00,,,0.00,Wunderground v.1.15,2013-03-31 05:34:00,
2013-03-30 21:40:00,34.7,30.9,30.18,NNW,344,0.0,0.0,86,0.00,,,0.00,Wunderground v.1.15,2013-03-31 05:40:00,
2013-03-30 21:45:00,34.9,31.1,30.18,North,354,0.0,1.0,86,0.00,,,0.00,Wunderground v.1.15,2013-03-31 05:45:00,
2013-03-30 21:50:00,35.0,31.5,30.18,North,354,0.0,0.0,87,0.00,,,0.00,Wunderground v.1.15,2013-03-31 05:50:00,
2013-03-30 21:56:00,35.0,31.5,30.18,North,354,0.0,1.0,87,0.00,,,0.00,Wunderground v.1.15,2013-03-31 05:56:00,
2013-03-30 22:01:00,34.8,31.3,30.18,North,354,0.0,2.0,87,0.00,,,0.00,Wunderground v.1.15,2013-03-31 06:01:00,
2013-03-30 22:06:00,34.6,31.4,30.19,North,349,0.0,2.0,88,0.00,,,0.00,Wunderground v.1.15,2013-03-31 06:06:00,
2013-03-30 22:11:00,34.5,31.3,30.19,West,280,0.0,2.0,88,0.00,,,0.00,Wunderground v.1.15,2013-03-31 06:11:00,
2013-03-30 22:17:00,34.4,31.2,30.19,West,281,0.0,2.0,88,0.00,,,0.00,Wunderground v.1.15,2013-03-31 06:17:00,
2013-03-30 22:22:00,34.3,31.1,30.19,West,280,0.0,2.0,88,0.00,,,0.00,Wunderground v.1.15,2013-03-31 06:22:00,
2013-03-30 22:28:00,34.3,31.1,30.19,West,280,0.0,2.0,88,0.00,,,0.00,Wunderground v.1.15,2013-03-31 06:28:00,
2013-03-30 22:33:00,34.2,31.0,30.19,West,280,0.0,2.0,88,0.00,,,0.00,Wunderground v.1.15,2013-03-31 06:33:00,
2013-03-30 22:38:00,34.2,30.7,30.19,West,280,0.0,2.0,87,0.00,,,0.00,Wunderground v.1.15,2013-03-31 06:38:00,
2013-03-30 22:44:00,34.2,30.7,30.19,West,280,0.0,2.0,87,0.00,,,0.00,Wunderground v.1.15,2013-03-31 06:44:00,
2013-03-30 22:50:00,34.3,30.5,30.19,West,280,0.0,2.0,86,0.00,,,0.00,Wunderground v.1.15,2013-03-31 06:50:00,
2013-03-30 22:55:00,34.3,30.5,30.19,West,280,0.0,2.0,86,0.00,,,0.00,Wunderground v.1.15,2013-03-31 06:55:00,
2013-03-30 23:00:00,34.4,30.6,30.19,West,280,0.0,1.0,86,0.00,,,0.00,Wunderground v.1.15,2013-03-31 07:00:00,
2013-03-30 23:06:00,34.5,30.5,30.19,West,280,0.0,1.0,85,0.00,,,0.00,Wunderground v.1.15,2013-03-31 07:06:00,
2013-03-30 23:11:00,34.5,30.5,30.19,West,280,0.0,1.0,85,0.00,,,0.00,Wunderground v.1.15,2013-03-31 07:11:00,
2013-03-30 23:17:00,34.4,30.1,30.19,West,280,0.0,1.0,84,0.00,,,0.00,Wunderground v.1.15,2013-03-31 07:17:00,
2013-03-30 23:23:00,34.4,30.4,30.20,West,280,0.0,1.0,85,0.00,,,0.00,Wunderground v.1.15,2013-03-31 07:23:00,
2013-03-30 23:29:00,34.6,30.3,30.20,West,280,0.0,1.0,84,0.00,,,0.00,Wunderground v.1.15,2013-03-31 07:29:00,
2013-03-30 23:34:00,34.6,30.0,30.20,West,279,0.0,1.0,83,0.00,,,0.00,Wunderground v.1.15,2013-03-31 07:34:00,
2013-03-30 23:39:00,34.7,30.1,30.20,NNE,31,0.0,3.0,83,0.00,,,0.00,Wunderground v.1.15,2013-03-31 07:39:00,
2013-03-30 23:45:00,34.9,30.0,30.20,ESE,108,2.0,4.0,82,0.00,,,0.00,Wunderground v.1.15,2013-03-31 07:45:00,
2013-03-30 23:51:00,35.3,29.4,30.20,East,95,3.0,3.0,79,0.00,,,0.00,Wunderground v.1.15,2013-03-31 07:51:00,
2013-03-30 23:56:00,35.4,29.5,30.20,East,89,2.0,3.0,79,0.00,,,0.00,Wunderground v.1.15,2013-03-31 07:56:00,